sat.trackr.live / text

‹ back to catalog

HULIANWANG DIGUI-147

NORAD 67523 · 2026-013B

PAYLOAD ACTIVE UNKNOWN

§ Identity

Operator
Country
PRC
Launch date
2026-01-19
Launch site
WSC
Launch vehicle
Mass (kg)
RCS (m²)

External: N2YO · Heavens-Above · Gunter

§ Orbital elements

Epoch: 2026-09-20T20:29:23.543808Z

Period
108.33 min
Inclination
50.0072°
Eccentricity
0.0000690
Mean motion
13.29331138 rev/d
Perigee alt
1,148.8 km
Apogee alt
1,149.8 km
Semi-major
7,527.4 km
B*
3.3556e-5
RAAN
12.6747°
Arg perigee
109.5096°
Mean anomaly
250.5851°
Rev number
3,277

§ Raw data

HULIANWANG DIGUI-1471 67523U 26013B   26263.85374472 -.00000108  00000+0  33556-4 0  99992 67523  50.0072  12.6747 0000690 109.5096 250.5851 13.29331138 32770

JSON: /api/v1/satellites/67523 · /tle

For live sub-satellite position, see the globe view (requires WebGL).

§ Visibility from observer

Set your observer location to see the next 7 days of passes ≥ 10°. The values pass through the URL so the page stays shareable.

No JS? Fill the form by hand. The geolocation button needs JavaScript.